You are here:
  • Home »
  • Tender »
  • Open Tender Enquiry

Open Tender Enquiry

Sl.No. Enquiry No. Date Due on Short Description
16701 2/ PE210834/1 20/10/2021 06/12/2021 MECHANICAL SEAL
16702 2/ PE210840/1 20/10/2021 06/12/2021 SPARES FOR COOLING TOWER
16703 GEM/2021/B/1637741 29-10-21 19-11-21 Power Cable
16704 GEM/2021/B/1638550 30-10-21 01-11-21 Desktop Computers
16705 GEM/2021/B/1638640 30-10-21 20-11-21 LED tube light
16706 GEM/2021/B/1638854 30-10-21 20-11-21 Lockers
16707 1/ 210850/8 26.10.2021 30.11.2021 D.G.Set Spares
16708 1/ 210960/8 26.10.2021 30.11.2021 Induction Motor
16709 1/ 210987/8 26.10.2021 30.11.2021 Coarse Pebbles
16710 1/ 210989/8 26.10.2021 30.11.2021 Induction Motor
16711 1/ 210995/8 26.10.2021 30.11.2021 M.S. Flat
16712 GEM/2021/B/1639622 30-10-21 20-11-21 Bathing Soap
16713 1/ PE210238/7 26.10.2021 29.11.2021 Bearing
16714 1/ PE210735/1 25.10.2021 29.11.2021 M.S. Perforated Sheet
16715 1/ PE210748/1 25.10.2021 29.11.2021 NGR Spares
16716 1/ PE210750/1 25.10.2021 29.11.2021 FRP Gratings
16717 3/ PE210306/7 30/10/2021 08/12/2021 Compression type Load Cell
16718 3/ PE210846/1 30/10/2021 08/12/2021 Brake Disc (PC)
16719 3/ PE211012/8 30/10/2021 08/12/2021 Silicon Sealent
16720 3/ PE210296/7 30/10/2021 08/12/2021 Green bamboo
16721 3/ PE210304/7 30/10/2021 08/12/2021 Cushion Valve
16722 3/ PE210302/7 29/10/2021 06/12/2021 Kit Breather
16723 3/ PE210300/7 29/10/2021 06/12/2021 Slice Piece
16724 3/ PE210875/1 29/10/2021 06/12/2021 Piston Ring Set
16725 3/ PE210297/7 29/10/2021 06/12/2021 Screw and Nut
16726 3/ PE211022/8 29/10/2021 06/12/2021 Insert Bushing
16727 3/ PE210261/7 29/10/2021 06/12/2021 Sensor-Temp
16728 2/ PE210982/8 21/10/2021 01/12/2021 PRE FILTER
16729 2/ PE210981/8 21/10/2021 01/12/2021 HORIZONTAL CENTRIFUGAL PUMP
16730 2/ PE210996/8 21/10/2021 01/12/2021 SPARES FOR BOILER
16731 2/ PE210833/1 21/10/2021 01/12/2021 AGITATOR ASSEMBLY
16732 3/ PE210904/8 01/11/2021 09/12/2021 Switch Battery
16733 3/ PE210305/7 01/11/2021 09/12/2021 Steering Unit
16734 3/ PE210299/7 01/11/2021 09/12/2021 Sensor Fluid Level
16735 3/ PE210871/1 01/11/2021 09/12/2021 Tyre & Tube
16736 3/ PE210888/1 02/11/2021 09/12/2021 Converter Kit
16737 3/ PE211029/8 01/11/2021 09/12/2021 Dial Test Indicator
16738 3/ PE210301/7 01/11/2021 09/12/2021 Wire Rope
16739 3/ PE210873/1 01/11/2021 09/12/2021 Touch Wood
16740 3/ PE210303/7 01/11/2021 09/12/2021 Spares for Caplamp
16741 3/ PE211024/8 01/11/2021 09/12/2021 Bonded Seal
16742 1- PE210566-1 05/10/2021 16/11/2021 SPANNER
16743 2- PE210587-1 11/10/2021 16/11/2021 AMMONIA COMPRESSURE SPARES
16744 2- PE210596-1 12/10/2021 16/11/2021 SINGLE DECK RECTANGULAR SCREEN.
16745 2- PE210598-1 13/10/2021 16/11/2021 SPARE RUBBER DIAPHRAGM
16746 2- PE210610-1 20/10/2021 19/11/2021 COMPRESSOR
16747 3- PE210579-1 06/10/2021 12/11/2021 HYDRALIC POWER HACK SAW MACHINE
16748 2- PE210600-1 13/10/2021 16/11/2021 Pressure transmitter
16749 1- PE210617-1 28/10/2021 26/11/2021 parting tools
16750 1- PE210619-1 28/10/2021 26/11/2021 Break fast coupons
16751 1- PE210623-1 28/10/2021 16/11/2021 Furniture
16752 1- PE210631-1 30/10/2021 26/11/2021 3-Phase squirrel cage Induction Motor
16753 2- PE210599-1 13/10/2021 16/11/2021 Soleniod Valve
16754 2- PE210615-1 28/10/2021 26/11/2021 Cartridge
16755 2- PE210618-1 28/10/2021 26/11/2021 Repulper Gear Box
16756 2- PE210620-1 28/10/2021 26/11/2021 Girt gear tools
16757 2- PE210621-1 28/10/2021 26/11/2021 SPRING LOADED C.I
16758 2- PE210626-1 28/10/2021 26/11/2021 welding machine
16759 3- PE210616-1 28/10/2021 26/11/2021 Portable Grinding Machine
16760 2/ PE210971/8 18/10/2021 06/12/2021 WORM GEAR BOX
16761 2/ PE210728/1 18/10/2021 06/12/2021 BARREL ASSEMBLY
16762 2/ PE210883/8 18/10/2021 06/12/2021 SPARE FOR DIAPHRAGM VALVE
16763 2/ PE210976/8 18/10/2021 06/12/2021 FLUID COUPLING
16764 1/ PE210573/1 Corrigendum-I 09.11.2021 16.11.2021 Variable frequency drive
16765 1/ PE210570/1 Corrigendum-I 09.11.2021 19.11.2021 Gear oprated rolling shutter
16766 2/ PE210855/1 05/11/2021 13/12/2021 TRUNION FOR DRUM FILTER
16767 2/ PE210856/1 05/11/2021 13/12/2021 V GROOVE PULLEY
16768 2/ PE210862/1 05/11/2021 13/12/2021 GEAR COUPLING
16769 2/ PE210861/1 05/11/2021 13/12/2021 SLEEVE & LANTERN RING
16770 2/ PE210858/1 05/11/2021 13/12/2021 SPARE CI BONNET ASSEMBLY
16771 2/ PE210857/1 05/11/2021 13/12/2021 CHEMICALS
16772 2/ PE210863/1 05/11/2021 13/12/2021 SPARE DIAPHRAGM FOR KB TYPE VALVE
16773 2/ PE210860/1 05/11/2021 13/12/2021 PROPELLER RH FOR LPS TANK
16774 1/ PE210533/1 Corrigendum-I -- 23.11.2021 Reporting books 125 sets
16775 1- PE210613-1 28/10/2021 26/11/2021 Touch interface
16776 2- PE210611-1 28/10/2021 26/11/2021 electric cable
16777 2- PE210612-1 28/10/2021 26/11/2021 250 AMPS SILICON POWER DIODE
16778 2- PE210625-1 28/10/2021 26/11/2021 COMPRESSOR
16779 3- PE210614-1 28/10/2021 26/11/2021 Tribol Grease
16780 2- PE210632-1 02/11/2021 29/11/2021 Diaphragm
16781 3- PE210616-1 28/10/2021 26/11/2021 Grinding Machine
16782 1- PE210631-1 30/10/2021 26/11/2021 3-Phase squirrel cage Induction Motor
16783 1/ PE200325/1 Corrigendum-I Tender opened Tender cancelled Street light junction box
16784 1/ PE210184/1 Corrigendum-I Tender opened Tender cancelled High energy lithium battery
16785 1/ PE210348/1 Corrigendum-I Tender opened Tender cancelled Vacuum pump spares
16786 2/ PE210171/1 Corrigendum Tender opened Tender cancelled Magnetic flow meters
16787 2/ PE210203/1 Corrigendum-I Tender opened Tender cancelled Plummer block
16788 2/ PE210463/1 Corrigendum-1 Tender opened Tender cancelled Diaphragm valves
16789 2/ PE210342/1 Corrigendum-I Tender opened Tender cancelled Gear box for product drying filter
16790 1/ PE210372/1 Corrigendum-I Tender opened Tender cancelled Control transformers
16791 3/ PE210360/1 Corrigendum-I Tender opened Tender cancelled Hydraulic spares
16792 DUE DATE EXTENSION OF 2- PE210977-8 08.10.2021 25.11.2021 Caulking Rope
16793 2/ PE210984/8 28/10/2021 07/12/2021 SPARES FOR PUMP
16794 2/ PE210731/1 28/10/2021 07/12/2021 ECCENTRIC BUSH
16795 2/ PE210730/8 28/10/2021 07/12/2021 JAW CLUTCH COUPLING
16796 2/ PE210998/8 28/10/2021 07/12/2021 LEVEL TRANSMITTER
16797 1/ PE210559/1 Corrigendum-I 05.11.2021 26.11.2021 Temperature Scanner
16798 2/ PE210596/1 Corrigendum-I 16.11.2021 07.12.2021 Single deck rectangular screen
16799 2/ PE210525/1 Corrigendum-I Tender opened Tender cancelled Spares for KC-09 Kirkskar
16800 2/ PE210266/1 Corrigendum-I Tender opened Tender cancelled Taflon and rubber washers